Location: Patterson (historical)
(35.1418°N, 90.5529°W)
Time: 17:46:12
(UTC+00:00)

Cosmos 1898 Rocket - Pass Details

Date: 11 December 2025
Orbit: 749 x 779 km, 74.0° (Epoch: 20 January)

Event Time Altitude Azimuth Distance (km) Brightness Sun altitude
Rises 23:18:58 0° 166° (SSE) 3,179 6.8 -6.0°
Reaches altitude 10° 23:21:39 10° 154° (SSE) 2,258 5.9 -6.5°
Maximum altitude 23:25:50 26° 99° (E) 1,445 4.5 -7.3°
Drops below altitude 10° 23:30:02 10° 44° (NE) 2,273 5.4 -8.1°
Enters shadow 23:30:59 - 38° (NE) 2,583 5.7 -8.3°
